Time,TemperatureF,DewpointF,PressureIn,WindDirection,WindDirectionDegrees,WindSpeedMPH,WindSpeedGustMPH,Humidity,HourlyPrecipIn,Conditions,Clouds,dailyrainin,SoftwareType,DateUTC
2013-03-01 00:01:00,38.1,5.4,30.35,ENE,69,0.0,1.0,25,0.00,,---,0.00,VWS V14.01,2013-03-01 07:01:00,
2013-03-01 00:05:00,37.8,6.0,30.35,ENE,69,0.0,2.0,26,0.00,,---,0.00,VWS V14.01,2013-03-01 07:05:00,
2013-03-01 00:06:00,37.7,5.9,30.36,ENE,69,0.0,1.0,26,0.00,,---,0.00,VWS V14.01,2013-03-01 07:06:00,
2013-03-01 00:10:00,37.5,5.8,30.36,ENE,73,0.0,2.0,26,0.00,,---,0.00,VWS V14.01,2013-03-01 07:10:00,
2013-03-01 00:11:00,37.4,5.7,30.36,ENE,73,0.0,0.0,26,0.00,,---,0.00,VWS V14.01,2013-03-01 07:11:00,
2013-03-01 00:15:00,37.3,5.6,30.36,ENE,63,1.0,3.0,26,0.00,,---,0.00,VWS V14.01,2013-03-01 07:15:00,
2013-03-01 00:16:00,37.0,5.3,30.36,ENE,63,0.0,2.0,26,0.00,,---,0.00,VWS V14.01,2013-03-01 07:16:00,
2013-03-01 00:20:00,36.9,6.1,30.36,ENE,63,0.0,2.0,27,0.00,,---,0.00,VWS V14.01,2013-03-01 07:20:00,
2013-03-01 00:21:00,36.9,6.1,30.36,ENE,63,0.0,1.0,27,0.00,,---,0.00,VWS V14.01,2013-03-01 07:21:00,
2013-03-01 00:25:00,36.6,5.8,30.36,ESE,111,2.0,3.0,27,0.00,,---,0.00,VWS V14.01,2013-03-01 07:25:00,
2013-03-01 00:26:00,36.4,6.4,30.36,ENE,65,0.0,2.0,28,0.00,,---,0.00,VWS V14.01,2013-03-01 07:26:00,
2013-03-01 00:30:00,36.1,6.2,30.36,ENE,65,0.0,2.0,28,0.00,,---,0.00,VWS V14.01,2013-03-01 07:30:00,
2013-03-01 00:31:00,36.1,6.2,30.36,NE,51,1.0,2.0,28,0.00,,---,0.00,VWS V14.01,2013-03-01 07:31:00,
2013-03-01 00:35:00,36.1,6.2,30.36,NE,50,0.0,2.0,28,0.00,,---,0.00,VWS V14.01,2013-03-01 07:35:00,
2013-03-01 00:36:00,36.0,6.1,30.36,ENE,64,0.0,2.0,28,0.00,,---,0.00,VWS V14.01,2013-03-01 07:36:00,
2013-03-01 00:40:00,36.0,6.1,30.36,ENE,62,1.0,2.0,28,0.00,,---,0.00,VWS V14.01,2013-03-01 07:40:00,
2013-03-01 00:41:00,36.0,6.1,30.36,ENE,57,2.0,2.0,28,0.00,,---,0.00,VWS V14.01,2013-03-01 07:41:00,
2013-03-01 00:45:00,36.0,6.1,30.36,ENE,57,0.0,2.0,28,0.00,,---,0.00,VWS V14.01,2013-03-01 07:45:00,
2013-03-01 00:46:00,35.9,6.0,30.36,ENE,57,0.0,0.0,28,0.00,,---,0.00,VWS V14.01,2013-03-01 07:46:00,
2013-03-01 00:50:00,35.6,5.7,30.36,ENE,57,0.0,2.0,28,0.00,,---,0.00,VWS V14.01,2013-03-01 07:50:00,
2013-03-01 00:51:00,35.7,5.8,30.36,NE,53,3.0,3.0,28,0.00,,---,0.00,VWS V14.01,2013-03-01 07:51:00,
2013-03-01 00:55:00,36.0,6.1,30.36,NE,40,0.0,4.0,28,0.00,,---,0.00,VWS V14.01,2013-03-01 07:55:00,
2013-03-01 01:00:00,36.0,6.1,30.36,NE,55,1.0,3.0,28,0.00,,---,0.00,VWS V14.01,2013-03-01 08:00:00,
2013-03-01 01:01:00,36.1,6.2,30.36,NE,34,0.0,3.0,28,0.00,,---,0.00,VWS V14.01,2013-03-01 08:01:00,
2013-03-01 01:05:00,36.3,6.3,30.36,East,81,0.0,3.0,28,0.00,,---,0.00,VWS V14.01,2013-03-01 08:05:00,
2013-03-01 01:06:00,36.3,5.5,30.36,East,81,0.0,1.0,27,0.00,,---,0.00,VWS V14.01,2013-03-01 08:06:00,
2013-03-01 01:10:00,36.0,6.1,30.36,NE,42,1.0,3.0,28,0.00,,---,0.00,VWS V14.01,2013-03-01 08:10:00,
2013-03-01 01:11:00,36.1,6.2,30.36,ENE,57,0.0,2.0,28,0.00,,---,0.00,VWS V14.01,2013-03-01 08:11:00,
2013-03-01 01:15:00,36.3,5.5,30.37,ENE,57,0.0,2.0,27,0.00,,---,0.00,VWS V14.01,2013-03-01 08:15:00,
2013-03-01 01:16:00,36.3,5.5,30.36,ENE,57,1.0,2.0,27,0.00,,---,0.00,VWS V14.01,2013-03-01 08:16:00,
2013-03-01 01:20:00,36.3,6.3,30.36,NNE,29,0.0,3.0,28,0.00,,---,0.00,VWS V14.01,2013-03-01 08:20:00,
2013-03-01 01:21:00,36.4,5.6,30.36,NNE,29,0.0,0.0,27,0.00,,---,0.00,VWS V14.01,2013-03-01 08:21:00,
2013-03-01 01:25:00,36.2,6.2,30.36,NNE,29,0.0,1.0,28,0.00,,---,0.00,VWS V14.01,2013-03-01 08:25:00,
2013-03-01 01:26:00,36.2,6.2,30.36,NE,43,2.0,3.0,28,0.00,,---,0.00,VWS V14.01,2013-03-01 08:26:00,
2013-03-01 01:30:00,36.4,6.4,30.35,NNE,30,1.0,5.0,28,0.00,,---,0.00,VWS V14.01,2013-03-01 08:30:00,
2013-03-01 01:31:00,36.5,6.5,30.35,NNE,19,3.0,5.0,28,0.00,,---,0.00,VWS V14.01,2013-03-01 08:31:00,
2013-03-01 01:35:00,36.6,5.8,30.35,NNE,15,3.0,7.0,27,0.00,,---,0.00,VWS V14.01,2013-03-01 08:35:00,
2013-03-01 01:36:00,36.6,5.8,30.35,NNE,13,4.0,4.0,27,0.00,,---,0.00,VWS V14.01,2013-03-01 08:36:00,
2013-03-01 01:40:00,36.8,6.0,30.35,North,350,6.0,7.0,27,0.00,,---,0.00,VWS V14.01,2013-03-01 08:40:00,
2013-03-01 01:41:00,36.9,6.1,30.35,North,360,0.0,7.0,27,0.00,,---,0.00,VWS V14.01,2013-03-01 08:41:00,
2013-03-01 01:45:00,36.9,6.1,30.35,North,360,2.0,9.0,27,0.00,,---,0.00,VWS V14.01,2013-03-01 08:45:00,
2013-03-01 01:46:00,36.9,6.1,30.35,NNE,29,7.0,9.0,27,0.00,,---,0.00,VWS V14.01,2013-03-01 08:46:00,
2013-03-01 01:50:00,37.0,6.1,30.35,NNW,342,5.0,9.0,27,0.00,,---,0.00,VWS V14.01,2013-03-01 08:50:00,
2013-03-01 01:51:00,37.0,6.1,30.35,North,355,6.0,6.0,27,0.00,,---,0.00,VWS V14.01,2013-03-01 08:51:00,
2013-03-01 01:55:00,37.0,6.1,30.35,North,355,2.0,6.0,27,0.00,,---,0.00,VWS V14.01,2013-03-01 08:55:00,
2013-03-01 01:56:00,36.9,6.1,30.35,NNW,348,5.0,6.0,27,0.00,,---,0.00,VWS V14.01,2013-03-01 08:56:00,
2013-03-01 02:00:00,36.9,6.8,30.35,NNW,346,2.0,7.0,28,0.00,,---,0.00,VWS V14.01,2013-03-01 09:00:00,
2013-03-01 02:01:00,36.7,6.7,30.35,NNW,344,4.0,4.0,28,0.00,,---,0.00,VWS V14.01,2013-03-01 09:01:00,
2013-03-01 02:05:00,36.5,6.5,30.35,NNW,346,2.0,4.0,28,0.00,,---,0.00,VWS V14.01,2013-03-01 09:05:00,
2013-03-01 02:06:00,36.4,6.4,30.35,NNW,340,3.0,4.0,28,0.00,,---,0.00,VWS V14.01,2013-03-01 09:06:00,
2013-03-01 02:10:00,36.3,6.3,30.36,NNW,336,0.0,4.0,28,0.00,,---,0.00,VWS V14.01,2013-03-01 09:10:00,
2013-03-01 02:11:00,36.1,6.2,30.36,NNW,346,4.0,5.0,28,0.00,,---,0.00,VWS V14.01,2013-03-01 09:11:00,
2013-03-01 02:15:00,36.1,6.9,30.36,NW,324,2.0,6.0,29,0.00,,---,0.00,VWS V14.01,2013-03-01 09:15:00,
2013-03-01 02:20:00,36.4,7.2,30.36,NW,309,6.0,11.0,29,0.00,,---,0.00,VWS V14.01,2013-03-01 09:20:00,
2013-03-01 02:21:00,36.5,7.3,30.35,NNW,345,3.0,6.0,29,0.00,,---,0.00,VWS V14.01,2013-03-01 09:21:00,
2013-03-01 02:25:00,36.7,7.4,30.35,NW,309,4.0,7.0,29,0.00,,---,0.00,VWS V14.01,2013-03-01 09:25:00,
2013-03-01 02:26:00,36.7,7.4,30.36,NNW,337,6.0,6.0,29,0.00,,---,0.00,VWS V14.01,2013-03-01 09:26:00,
2013-03-01 02:30:00,36.8,7.5,30.36,North,360,4.0,8.0,29,0.00,,---,0.00,VWS V14.01,2013-03-01 09:30:00,
2013-03-01 02:31:00,36.8,7.5,30.36,North,351,6.0,6.0,29,0.00,,---,0.00,VWS V14.01,2013-03-01 09:31:00,
2013-03-01 02:35:00,36.9,7.6,30.36,NNW,339,5.0,8.0,29,0.00,,---,0.00,VWS V14.01,2013-03-01 09:35:00,
2013-03-01 02:36:00,36.9,7.6,30.36,NNW,336,3.0,6.0,29,0.00,,---,0.00,VWS V14.01,2013-03-01 09:36:00,
2013-03-01 02:40:00,36.9,7.6,30.36,NW,319,4.0,8.0,29,0.00,,---,0.00,VWS V14.01,2013-03-01 09:40:00,
2013-03-01 02:41:00,37.0,8.5,30.36,NNW,327,5.0,9.0,30,0.00,,---,0.00,VWS V14.01,2013-03-01 09:41:00,
2013-03-01 02:45:00,37.2,7.9,30.36,NNW,346,2.0,9.0,29,0.00,,---,0.00,VWS V14.01,2013-03-01 09:45:00,
2013-03-01 02:46:00,37.1,7.8,30.36,NNW,327,6.0,6.0,29,0.00,,---,0.00,VWS V14.01,2013-03-01 09:46:00,
2013-03-01 02:50:00,37.0,7.7,30.36,NNW,328,4.0,11.0,29,0.00,,---,0.00,VWS V14.01,2013-03-01 09:50:00,
2013-03-01 02:51:00,37.1,7.8,30.36,NW,317,2.0,9.0,29,0.00,,---,0.00,VWS V14.01,2013-03-01 09:51:00,
2013-03-01 02:55:00,37.0,8.5,30.36,NNW,327,3.0,9.0,30,0.00,,---,0.00,VWS V14.01,2013-03-01 09:55:00,
2013-03-01 02:56:00,36.9,8.4,30.35,NNW,342,6.0,9.0,30,0.00,,---,0.00,VWS V14.01,2013-03-01 09:56:00,
2013-03-01 03:00:00,36.8,8.3,30.36,NNW,333,8.0,9.0,30,0.00,,---,0.00,VWS V14.01,2013-03-01 10:00:00,
2013-03-01 03:01:00,36.8,8.3,30.36,NNW,342,5.0,10.0,30,0.00,,---,0.00,VWS V14.01,2013-03-01 10:01:00,
2013-03-01 03:05:00,36.8,8.3,30.36,North,360,6.0,10.0,30,0.00,,---,0.00,VWS V14.01,2013-03-01 10:05:00,
2013-03-01 03:06:00,36.7,8.2,30.36,NNW,337,11.0,13.0,30,0.00,,---,0.00,VWS V14.01,2013-03-01 10:06:00,
2013-03-01 03:10:00,36.7,8.2,30.36,NNW,333,9.0,13.0,30,0.00,,---,0.00,VWS V14.01,2013-03-01 10:10:00,
2013-03-01 03:11:00,36.7,8.2,30.36,NNW,329,5.0,9.0,30,0.00,,---,0.00,VWS V14.01,2013-03-01 10:11:00,
2013-03-01 03:15:00,36.7,8.2,30.36,North,355,6.0,12.0,30,0.00,,---,0.00,VWS V14.01,2013-03-01 10:15:00,
2013-03-01 03:16:00,36.8,8.3,30.36,NNW,341,5.0,11.0,30,0.00,,---,0.00,VWS V14.01,2013-03-01 10:16:00,
2013-03-01 03:20:00,36.8,8.3,30.36,NNW,334,3.0,12.0,30,0.00,,---,0.00,VWS V14.01,2013-03-01 10:20:00,
2013-03-01 03:21:00,36.8,8.3,30.36,North,360,3.0,9.0,30,0.00,,---,0.00,VWS V14.01,2013-03-01 10:21:00,
2013-03-01 03:25:00,36.8,8.3,30.36,North,5,4.0,10.0,30,0.00,,---,0.00,VWS V14.01,2013-03-01 10:25:00,
2013-03-01 03:26:00,36.8,8.3,30.36,NW,319,10.0,10.0,30,0.00,,---,0.00,VWS V14.01,2013-03-01 10:26:00,
2013-03-01 03:30:00,36.6,8.8,30.36,NNW,343,2.0,10.0,31,0.00,,---,0.00,VWS V14.01,2013-03-01 10:30:00,
2013-03-01 03:31:00,36.5,8.0,30.36,NNW,340,3.0,7.0,30,0.00,,---,0.00,VWS V14.01,2013-03-01 10:31:00,
2013-03-01 03:35:00,36.1,8.4,30.36,NW,323,4.0,7.0,31,0.00,,---,0.00,VWS V14.01,2013-03-01 10:35:00,
2013-03-01 03:36:00,35.9,8.2,30.36,NW,317,1.0,6.0,31,0.00,,---,0.00,VWS V14.01,2013-03-01 10:36:00,
2013-03-01 03:40:00,35.7,8.1,30.36,NW,315,7.0,8.0,31,0.00,,---,0.00,VWS V14.01,2013-03-01 10:40:00,
2013-03-01 03:41:00,35.7,8.1,30.36,North,351,5.0,9.0,31,0.00,,---,0.00,VWS V14.01,2013-03-01 10:41:00,
2013-03-01 03:45:00,35.6,8.7,30.36,NNW,341,7.0,9.0,32,0.00,,---,0.00,VWS V14.01,2013-03-01 10:45:00,
2013-03-01 03:46:00,35.5,8.6,30.36,NNW,337,2.0,8.0,32,0.00,,---,0.00,VWS V14.01,2013-03-01 10:46:00,
2013-03-01 03:50:00,35.4,8.5,30.36,NNW,340,5.0,8.0,32,0.00,,---,0.00,VWS V14.01,2013-03-01 10:50:00,
2013-03-01 03:51:00,35.3,8.4,30.36,NNW,346,3.0,5.0,32,0.00,,---,0.00,VWS V14.01,2013-03-01 10:51:00,
2013-03-01 03:55:00,35.1,8.2,30.36,NNW,347,3.0,7.0,32,0.00,,---,0.00,VWS V14.01,2013-03-01 10:55:00,
2013-03-01 03:56:00,35.1,8.2,30.36,North,355,9.0,9.0,32,0.00,,---,0.00,VWS V14.01,2013-03-01 10:56:00,
2013-03-01 04:00:00,35.1,8.9,30.36,North,360,1.0,9.0,33,0.00,,---,0.00,VWS V14.01,2013-03-01 11:00:00,
2013-03-01 04:01:00,35.0,8.8,30.36,North,11,1.0,5.0,33,0.00,,---,0.00,VWS V14.01,2013-03-01 11:01:00,
2013-03-01 04:05:00,35.0,8.8,30.36,NNE,12,2.0,5.0,33,0.00,,---,0.00,VWS V14.01,2013-03-01 11:05:00,
2013-03-01 04:06:00,34.9,8.7,30.36,North,355,2.0,5.0,33,0.00,,---,0.00,VWS V14.01,2013-03-01 11:06:00,
2013-03-01 04:10:00,34.8,8.6,30.36,NE,39,2.0,5.0,33,0.00,,---,0.00,VWS V14.01,2013-03-01 11:10:00,
2013-03-01 04:11:00,34.8,8.6,30.36,NNW,348,2.0,6.0,33,0.00,,---,0.00,VWS V14.01,2013-03-01 11:11:00,
2013-03-01 04:15:00,34.8,8.6,30.36,North,360,3.0,7.0,33,0.00,,---,0.00,VWS V14.01,2013-03-01 11:15:00,
2013-03-01 04:16:00,34.8,8.6,30.36,North,10,2.0,4.0,33,0.00,,---,0.00,VWS V14.01,2013-03-01 11:16:00,
2013-03-01 04:20:00,34.8,8.6,30.36,North,360,2.0,7.0,33,0.00,,---,0.00,VWS V14.01,2013-03-01 11:20:00,
2013-03-01 04:21:00,34.9,8.7,30.36,NNW,334,2.0,6.0,33,0.00,,---,0.00,VWS V14.01,2013-03-01 11:21:00,
2013-03-01 04:25:00,35.0,8.8,30.36,North,5,2.0,8.0,33,0.00,,---,0.00,VWS V14.01,2013-03-01 11:25:00,
2013-03-01 04:26:00,34.9,8.7,30.36,NW,323,2.0,5.0,33,0.00,,---,0.00,VWS V14.01,2013-03-01 11:26:00,
2013-03-01 04:30:00,34.8,8.6,30.36,North,355,3.0,5.0,33,0.00,,---,0.00,VWS V14.01,2013-03-01 11:30:00,
2013-03-01 04:31:00,34.8,8.6,30.36,NW,324,2.0,6.0,33,0.00,,---,0.00,VWS V14.01,2013-03-01 11:31:00,
2013-03-01 04:35:00,34.8,8.6,30.36,NNW,336,3.0,6.0,33,0.00,,---,0.00,VWS V14.01,2013-03-01 11:35:00,
2013-03-01 04:36:00,34.8,8.6,30.36,NNW,338,2.0,5.0,33,0.00,,---,0.00,VWS V14.01,2013-03-01 11:36:00,
2013-03-01 04:40:00,34.6,9.1,30.36,NNW,334,1.0,5.0,34,0.00,,---,0.00,VWS V14.01,2013-03-01 11:40:00,
2013-03-01 04:41:00,34.4,8.9,30.36,North,9,0.0,5.0,34,0.00,,---,0.00,VWS V14.01,2013-03-01 11:41:00,
2013-03-01 04:45:00,34.3,8.9,30.36,WNW,297,0.0,5.0,34,0.00,,---,0.00,VWS V14.01,2013-03-01 11:45:00,
2013-03-01 04:46:00,34.2,8.8,30.36,NW,323,2.0,2.0,34,0.00,,---,0.00,VWS V14.01,2013-03-01 11:46:00,
2013-03-01 04:50:00,33.9,9.1,30.36,NNW,341,0.0,3.0,35,0.00,,---,0.00,VWS V14.01,2013-03-01 11:50:00,
2013-03-01 04:51:00,33.8,9.1,30.36,NNW,341,1.0,1.0,35,0.00,,---,0.00,VWS V14.01,2013-03-01 11:51:00,
2013-03-01 04:55:00,33.7,9.0,30.36,NNW,342,2.0,3.0,35,0.00,,---,0.00,VWS V14.01,2013-03-01 11:55:00,
2013-03-01 04:56:00,33.6,8.9,30.36,NNW,329,3.0,4.0,35,0.00,,---,0.00,VWS V14.01,2013-03-01 11:56:00,
2013-03-01 05:00:00,33.9,9.8,30.36,NNW,333,3.0,7.0,36,0.00,,---,0.00,VWS V14.01,2013-03-01 12:00:00,
2013-03-01 05:01:00,34.2,9.4,30.36,NNW,336,3.0,6.0,35,0.00,,---,0.00,VWS V14.01,2013-03-01 12:01:00,
2013-03-01 05:05:00,34.6,9.8,30.36,NNW,344,1.0,6.0,35,0.00,,---,0.00,VWS V14.01,2013-03-01 12:05:00,
2013-03-01 05:06:00,34.6,9.8,30.36,NNW,342,4.0,4.0,35,0.00,,---,0.00,VWS V14.01,2013-03-01 12:06:00,
2013-03-01 05:10:00,34.8,9.3,30.36,NNW,340,3.0,6.0,34,0.00,,---,0.00,VWS V14.01,2013-03-01 12:10:00,
2013-03-01 05:11:00,34.8,9.3,30.36,NNW,342,2.0,6.0,34,0.00,,---,0.00,VWS V14.01,2013-03-01 12:11:00,
2013-03-01 05:16:00,35.0,9.5,30.36,NNW,343,3.0,7.0,34,0.00,,---,0.00,VWS V14.01,2013-03-01 12:16:00,
2013-03-01 05:21:00,35.1,9.6,30.36,North,360,4.0,7.0,34,0.00,,---,0.00,VWS V14.01,2013-03-01 12:21:00,
2013-03-01 05:26:00,35.1,9.6,30.36,NNW,340,5.0,7.0,34,0.00,,---,0.00,VWS V14.01,2013-03-01 12:26:00,
2013-03-01 05:31:00,34.7,9.2,30.37,North,350,4.0,5.0,34,0.00,,---,0.00,VWS V14.01,2013-03-01 12:31:00,
2013-03-01 05:36:00,34.6,9.8,30.36,NNW,346,3.0,5.0,35,0.00,,---,0.00,VWS V14.01,2013-03-01 12:36:00,
2013-03-01 05:41:00,34.4,9.6,30.36,North,5,2.0,3.0,35,0.00,,---,0.00,VWS V14.01,2013-03-01 12:41:00,
2013-03-01 05:46:00,34.4,9.6,30.36,NNW,333,1.0,5.0,35,0.00,,---,0.00,VWS V14.01,2013-03-01 12:46:00,
2013-03-01 05:51:00,34.3,9.5,30.37,North,360,6.0,6.0,35,0.00,,---,0.00,VWS V14.01,2013-03-01 12:51:00,
2013-03-01 05:56:00,34.3,9.5,30.37,North,5,7.0,7.0,35,0.00,,---,0.00,VWS V14.01,2013-03-01 12:56:00,
2013-03-01 06:01:00,34.4,9.6,30.37,NNW,329,2.0,4.0,35,0.00,,---,0.00,VWS V14.01,2013-03-01 13:01:00,
2013-03-01 06:06:00,34.6,9.8,30.37,NW,317,1.0,4.0,35,0.00,,---,0.00,VWS V14.01,2013-03-01 13:06:00,
2013-03-01 06:11:00,34.6,9.8,30.37,NNW,332,3.0,3.0,35,0.00,,---,0.00,VWS V14.01,2013-03-01 13:11:00,
2013-03-01 06:16:00,34.5,9.7,30.37,NW,322,2.0,5.0,35,0.00,,---,0.00,VWS V14.01,2013-03-01 13:16:00,
2013-03-01 06:21:00,34.5,9.7,30.37,NNW,342,4.0,8.0,35,0.00,,---,0.00,VWS V14.01,2013-03-01 13:21:00,
2013-03-01 06:26:00,34.6,9.8,30.37,NNW,340,7.0,8.0,35,0.00,,---,0.00,VWS V14.01,2013-03-01 13:26:00,
2013-03-01 06:31:00,34.7,9.9,30.37,NW,312,3.0,5.0,35,0.00,,---,0.00,VWS V14.01,2013-03-01 13:31:00,
2013-03-01 06:36:00,34.6,9.8,30.38,NNW,339,4.0,4.0,35,0.00,,---,0.00,VWS V14.01,2013-03-01 13:36:00,
2013-03-01 06:41:00,34.5,10.3,30.38,NNW,347,4.0,5.0,36,0.00,,---,0.00,VWS V14.01,2013-03-01 13:41:00,
2013-03-01 06:46:00,34.4,10.2,30.38,North,5,5.0,5.0,36,0.00,,---,0.00,VWS V14.01,2013-03-01 13:46:00,
2013-03-01 06:51:00,34.6,10.4,30.38,NNW,342,4.0,10.0,36,0.00,,---,0.00,VWS V14.01,2013-03-01 13:51:00,
2013-03-01 06:56:00,35.0,10.1,30.38,NNW,341,3.0,8.0,35,0.00,,---,0.00,VWS V14.01,2013-03-01 13:56:00,
2013-03-01 07:01:00,35.1,10.2,30.38,North,355,8.0,8.0,35,0.00,,---,0.00,VWS V14.01,2013-03-01 14:01:00,
2013-03-01 07:06:00,35.2,10.3,30.38,NNW,338,5.0,6.0,35,0.00,,---,0.00,VWS V14.01,2013-03-01 14:06:00,
2013-03-01 07:11:00,35.2,10.3,30.38,North,5,3.0,6.0,35,0.00,,---,0.00,VWS V14.01,2013-03-01 14:11:00,
2013-03-01 07:16:00,35.6,10.0,30.38,NNW,328,5.0,6.0,34,0.00,,---,0.00,VWS V14.01,2013-03-01 14:16:00,
2013-03-01 07:21:00,36.1,10.5,30.39,North,349,5.0,7.0,34,0.00,,---,0.00,VWS V14.01,2013-03-01 14:21:00,
2013-03-01 07:26:00,36.7,10.3,30.39,NNW,334,3.0,5.0,33,0.00,,---,0.00,VWS V14.01,2013-03-01 14:26:00,
2013-03-01 07:31:00,37.0,10.6,30.39,NNW,336,4.0,4.0,33,0.00,,---,0.00,VWS V14.01,2013-03-01 14:31:00,
2013-03-01 07:35:00,37.3,10.2,30.40,NNW,338,4.0,4.0,32,0.00,,---,0.00,VWS V14.01,2013-03-01 14:35:00,
2013-03-01 07:40:00,37.7,10.5,30.41,NW,325,1.0,5.0,32,0.00,,---,0.00,VWS V14.01,2013-03-01 14:40:00,
2013-03-01 07:45:00,38.0,10.8,30.41,North,355,4.0,4.0,32,0.00,,---,0.00,VWS V14.01,2013-03-01 14:45:00,
2013-03-01 07:50:00,38.2,10.2,30.41,NNW,340,5.0,7.0,31,0.00,,---,0.00,VWS V14.01,2013-03-01 14:50:00,
2013-03-01 07:55:00,38.4,10.4,30.40,NNW,346,2.0,6.0,31,0.00,,---,0.00,VWS V14.01,2013-03-01 14:55:00,
2013-03-01 08:00:00,38.7,10.7,30.41,North,350,3.0,7.0,31,0.00,,---,0.00,VWS V14.01,2013-03-01 15:00:00,
2013-03-01 08:05:00,38.9,10.9,30.41,NW,324,4.0,9.0,31,0.00,,---,0.00,VWS V14.01,2013-03-01 15:05:00,
2013-03-01 08:10:00,39.4,10.6,30.41,NNW,348,3.0,7.0,30,0.00,,---,0.00,VWS V14.01,2013-03-01 15:10:00,
2013-03-01 08:15:00,39.7,10.8,30.41,NNW,327,1.0,10.0,30,0.00,,---,0.00,VWS V14.01,2013-03-01 15:15:00,
2013-03-01 08:20:00,40.1,11.2,30.42,NNW,341,5.0,8.0,30,0.00,,---,0.00,VWS V14.01,2013-03-01 15:20:00,
2013-03-01 08:25:00,40.3,10.6,30.42,NE,38,4.0,6.0,29,0.00,,---,0.00,VWS V14.01,2013-03-01 15:25:00,
2013-03-01 08:30:00,40.7,10.9,30.42,NNW,336,3.0,6.0,29,0.00,,---,0.00,VWS V14.01,2013-03-01 15:30:00,
2013-03-01 08:35:00,40.8,11.0,30.42,NW,317,2.0,9.0,29,0.00,,---,0.00,VWS V14.01,2013-03-01 15:35:00,
2013-03-01 08:40:00,40.9,11.1,30.42,NW,317,1.0,4.0,29,0.00,,---,0.00,VWS V14.01,2013-03-01 15:40:00,
2013-03-01 08:45:00,41.1,10.5,30.42,NNW,330,5.0,7.0,28,0.00,,---,0.00,VWS V14.01,2013-03-01 15:45:00,
2013-03-01 08:50:00,41.6,10.9,30.42,North,355,5.0,10.0,28,0.00,,---,0.00,VWS V14.01,2013-03-01 15:50:00,
2013-03-01 08:55:00,41.8,11.1,30.42,NNE,13,3.0,8.0,28,0.00,,---,0.00,VWS V14.01,2013-03-01 15:55:00,
2013-03-01 09:00:00,41.8,11.1,30.41,NW,326,6.0,6.0,28,0.00,,---,0.00,VWS V14.01,2013-03-01 16:00:00,
2013-03-01 09:05:00,41.9,11.2,30.42,NNW,337,3.0,8.0,28,0.00,,---,0.00,VWS V14.01,2013-03-01 16:05:00,
2013-03-01 09:10:00,42.0,11.3,30.41,North,5,5.0,11.0,28,0.00,,---,0.00,VWS V14.01,2013-03-01 16:10:00,
2013-03-01 09:15:00,42.6,11.8,30.41,NW,323,2.0,5.0,28,0.00,,---,0.00,VWS V14.01,2013-03-01 16:15:00,
2013-03-01 09:20:00,43.2,11.5,30.41,NNW,331,3.0,4.0,27,0.00,,---,0.00,VWS V14.01,2013-03-01 16:20:00,
2013-03-01 09:25:00,43.5,11.8,30.41,NNW,327,5.0,7.0,27,0.00,,---,0.00,VWS V14.01,2013-03-01 16:25:00,
2013-03-01 09:30:00,43.5,11.8,30.40,North,350,3.0,7.0,27,0.00,,---,0.00,VWS V14.01,2013-03-01 16:30:00,
2013-03-01 09:35:00,43.9,12.1,30.40,NNW,344,6.0,9.0,27,0.00,,---,0.00,VWS V14.01,2013-03-01 16:35:00,
2013-03-01 09:40:00,43.7,11.9,30.40,North,350,4.0,8.0,27,0.00,,---,0.00,VWS V14.01,2013-03-01 16:40:00,
2013-03-01 09:45:00,44.4,12.5,30.40,NE,51,4.0,8.0,27,0.00,,---,0.00,VWS V14.01,2013-03-01 16:45:00,
2013-03-01 09:50:00,44.7,12.8,30.40,WSW,254,2.0,4.0,27,0.00,,---,0.00,VWS V14.01,2013-03-01 16:50:00,
2013-03-01 09:55:00,45.1,12.3,30.40,NNW,348,7.0,11.0,26,0.00,,---,0.00,VWS V14.01,2013-03-01 16:55:00,
2013-03-01 10:00:00,45.1,12.3,30.40,NW,325,2.0,3.0,26,0.00,,---,0.00,VWS V14.01,2013-03-01 17:00:00,
2013-03-01 10:05:00,46.0,13.1,30.40,North,350,7.0,9.0,26,0.00,,---,0.00,VWS V14.01,2013-03-01 17:05:00,
2013-03-01 10:10:00,46.2,13.2,30.40,NW,313,5.0,7.0,26,0.00,,---,0.00,VWS V14.01,2013-03-01 17:10:00,
2013-03-01 10:15:00,46.2,13.2,30.39,NNE,20,2.0,7.0,26,0.00,,---,0.00,VWS V14.01,2013-03-01 17:15:00,
2013-03-01 10:20:00,46.8,12.9,30.39,NW,306,4.0,4.0,25,0.00,,---,0.00,VWS V14.01,2013-03-01 17:20:00,
2013-03-01 10:25:00,47.4,13.4,30.39,North,355,6.0,13.0,25,0.00,,---,0.00,VWS V14.01,2013-03-01 17:25:00,
2013-03-01 10:30:00,47.3,13.3,30.39,NW,311,5.0,10.0,25,0.00,,---,0.00,VWS V14.01,2013-03-01 17:30:00,
2013-03-01 10:35:00,47.3,13.3,30.39,NW,323,7.0,10.0,25,0.00,,---,0.00,VWS V14.01,2013-03-01 17:35:00,
2013-03-01 10:40:00,48.1,13.0,30.39,NNW,344,7.0,13.0,24,0.00,,---,0.00,VWS V14.01,2013-03-01 17:40:00,
2013-03-01 10:45:00,47.9,12.9,30.39,NNW,346,3.0,10.0,24,0.00,,---,0.00,VWS V14.01,2013-03-01 17:45:00,
2013-03-01 10:50:00,47.8,13.7,30.39,WNW,291,3.0,4.0,25,0.00,,---,0.00,VWS V14.01,2013-03-01 17:50:00,
2013-03-01 10:55:00,48.7,13.5,30.39,NNW,340,4.0,10.0,24,0.00,,---,0.00,VWS V14.01,2013-03-01 17:55:00,
2013-03-01 11:00:00,49.0,13.8,30.38,NNW,342,5.0,8.0,24,0.00,,---,0.00,VWS V14.01,2013-03-01 18:00:00,
2013-03-01 11:05:00,48.8,13.6,30.38,North,355,12.0,12.0,24,0.00,,---,0.00,VWS V14.01,2013-03-01 18:05:00,
2013-03-01 11:10:00,49.6,14.3,30.38,NW,311,2.0,4.0,24,0.00,,---,0.00,VWS V14.01,2013-03-01 18:10:00,
2013-03-01 11:15:00,49.8,13.5,30.38,NNW,333,7.0,10.0,23,0.00,,---,0.00,VWS V14.01,2013-03-01 18:15:00,
2013-03-01 11:20:00,49.7,13.4,30.38,WNW,298,5.0,8.0,23,0.00,,---,0.00,VWS V14.01,2013-03-01 18:20:00,
2013-03-01 11:25:00,50.0,13.7,30.38,NW,323,4.0,6.0,23,0.00,,---,0.00,VWS V14.01,2013-03-01 18:25:00,
2013-03-01 11:30:00,49.9,13.6,30.38,NW,325,2.0,5.0,23,0.00,,---,0.00,VWS V14.01,2013-03-01 18:30:00,
2013-03-01 11:35:00,50.4,14.0,30.37,NNW,328,2.0,5.0,23,0.00,,---,0.00,VWS V14.01,2013-03-01 18:35:00,
2013-03-01 11:40:00,50.9,14.4,30.37,NNW,338,8.0,12.0,23,0.00,,---,0.00,VWS V14.01,2013-03-01 18:40:00,
2013-03-01 11:45:00,50.9,14.4,30.37,NNW,340,2.0,4.0,23,0.00,,---,0.00,VWS V14.01,2013-03-01 18:45:00,
2013-03-01 11:50:00,50.9,14.4,30.36,NNW,344,2.0,4.0,23,0.00,,---,0.00,VWS V14.01,2013-03-01 18:50:00,
2013-03-01 11:55:00,51.5,13.9,30.36,NNW,339,3.0,7.0,22,0.00,,---,0.00,VWS V14.01,2013-03-01 18:55:00,
2013-03-01 12:00:00,52.4,14.7,30.35,NNW,343,6.0,8.0,22,0.00,,---,0.00,VWS V14.01,2013-03-01 19:00:00,
2013-03-01 12:05:00,53.1,14.2,30.35,NNW,338,4.0,5.0,21,0.00,,---,0.00,VWS V14.01,2013-03-01 19:05:00,
2013-03-01 12:10:00,53.0,14.1,30.35,NW,323,2.0,6.0,21,0.00,,---,0.00,VWS V14.01,2013-03-01 19:10:00,
2013-03-01 12:15:00,53.5,13.4,30.34,NNW,341,6.0,7.0,20,0.00,,---,0.00,VWS V14.01,2013-03-01 19:15:00,
2013-03-01 12:20:00,54.6,14.4,30.34,North,350,3.0,6.0,20,0.00,,---,0.00,VWS V14.01,2013-03-01 19:20:00,
2013-03-01 12:25:00,54.1,13.9,30.34,NNE,19,4.0,4.0,20,0.00,,---,0.00,VWS V14.01,2013-03-01 19:25:00,
2013-03-01 12:30:00,54.2,15.1,30.34,WSW,245,3.0,3.0,21,0.00,,---,0.00,VWS V14.01,2013-03-01 19:30:00,
2013-03-01 12:35:00,55.0,14.7,30.33,WNW,303,4.0,7.0,20,0.00,,---,0.00,VWS V14.01,2013-03-01 19:35:00,
2013-03-01 12:40:00,54.8,14.5,30.33,WNW,294,2.0,5.0,20,0.00,,---,0.00,VWS V14.01,2013-03-01 19:40:00,
2013-03-01 12:45:00,55.2,14.9,30.32,West,274,3.0,7.0,20,0.00,,---,0.00,VWS V14.01,2013-03-01 19:45:00,
2013-03-01 12:50:00,55.4,15.0,30.32,NW,323,7.0,9.0,20,0.00,,---,0.00,VWS V14.01,2013-03-01 19:50:00,
2013-03-01 12:55:00,54.9,15.7,30.31,North,355,5.0,5.0,21,0.00,,---,0.00,VWS V14.01,2013-03-01 19:55:00,
2013-03-01 13:00:00,54.4,15.3,30.31,SSW,212,6.0,6.0,21,0.00,,---,0.00,VWS V14.01,2013-03-01 20:00:00,
2013-03-01 13:05:00,56.9,16.3,30.30,NNW,331,4.0,7.0,20,0.00,,---,0.00,VWS V14.01,2013-03-01 20:05:00,
2013-03-01 13:10:00,56.6,16.0,30.30,NNW,337,3.0,3.0,20,0.00,,---,0.00,VWS V14.01,2013-03-01 20:10:00,
2013-03-01 13:15:00,56.4,15.9,30.30,NW,319,2.0,7.0,20,0.00,,---,0.00,VWS V14.01,2013-03-01 20:15:00,
2013-03-01 13:20:00,57.2,16.5,30.29,West,280,2.0,7.0,20,0.00,,---,0.00,VWS V14.01,2013-03-01 20:20:00,
2013-03-01 13:25:00,57.0,15.2,30.29,NW,315,2.0,5.0,19,0.00,,---,0.00,VWS V14.01,2013-03-01 20:25:00,
2013-03-01 13:30:00,56.4,15.9,30.29,WNW,298,2.0,5.0,20,0.00,,---,0.00,VWS V14.01,2013-03-01 20:30:00,
2013-03-01 13:35:00,57.2,15.3,30.29,WNW,296,4.0,5.0,19,0.00,,---,0.00,VWS V14.01,2013-03-01 20:35:00,
2013-03-01 13:40:00,57.6,15.7,30.28,NNW,346,7.0,9.0,19,0.00,,---,0.00,VWS V14.01,2013-03-01 20:40:00,
2013-03-01 13:45:00,56.8,16.2,30.28,NW,311,1.0,5.0,20,0.00,,---,0.00,VWS V14.01,2013-03-01 20:45:00,
2013-03-01 13:50:00,57.3,16.6,30.27,NW,318,3.0,6.0,20,0.00,,---,0.00,VWS V14.01,2013-03-01 20:50:00,
2013-03-01 13:55:00,58.6,16.5,30.27,WNW,302,5.0,5.0,19,0.00,,---,0.00,VWS V14.01,2013-03-01 20:55:00,
2013-03-01 14:00:00,58.2,14.9,30.27,WNW,285,2.0,5.0,18,0.00,,---,0.00,VWS V14.01,2013-03-01 21:00:00,
2013-03-01 14:05:00,58.4,15.1,30.27,NW,323,6.0,7.0,18,0.00,,---,0.00,VWS V14.01,2013-03-01 21:05:00,
2013-03-01 14:10:00,57.8,14.6,30.27,North,351,10.0,10.0,18,0.00,,---,0.00,VWS V14.01,2013-03-01 21:10:00,
2013-03-01 14:15:00,57.9,14.7,30.27,NNW,339,6.0,9.0,18,0.00,,---,0.00,VWS V14.01,2013-03-01 21:15:00,
2013-03-01 14:20:00,58.2,14.9,30.26,WNW,296,4.0,7.0,18,0.00,,---,0.00,VWS V14.01,2013-03-01 21:20:00,
2013-03-01 14:25:00,57.7,14.5,30.27,NW,313,3.0,5.0,18,0.00,,---,0.00,VWS V14.01,2013-03-01 21:25:00,
2013-03-01 14:30:00,58.3,15.0,30.27,WNW,291,1.0,4.0,18,0.00,,---,0.00,VWS V14.01,2013-03-01 21:30:00,
2013-03-01 14:35:00,58.4,15.1,30.26,WSW,240,5.0,7.0,18,0.00,,---,0.00,VWS V14.01,2013-03-01 21:35:00,
2013-03-01 14:40:00,58.3,15.0,30.26,NW,325,3.0,5.0,18,0.00,,---,0.00,VWS V14.01,2013-03-01 21:40:00,
2013-03-01 14:45:00,58.9,15.5,30.26,WNW,284,6.0,7.0,18,0.00,,---,0.00,VWS V14.01,2013-03-01 21:45:00,
2013-03-01 14:50:00,57.9,14.7,30.26,NW,325,3.0,3.0,18,0.00,,---,0.00,VWS V14.01,2013-03-01 21:50:00,
2013-03-01 14:55:00,58.6,15.2,30.26,NW,318,1.0,5.0,18,0.00,,---,0.00,VWS V14.01,2013-03-01 21:55:00,
2013-03-01 15:00:00,58.9,15.5,30.26,WNW,298,3.0,9.0,18,0.00,,---,0.00,VWS V14.01,2013-03-01 22:00:00,
2013-03-01 15:05:00,59.1,15.7,30.26,NW,319,1.0,7.0,18,0.00,,---,0.00,VWS V14.01,2013-03-01 22:05:00,
2013-03-01 15:10:00,59.5,14.7,30.26,WSW,254,4.0,8.0,17,0.00,,---,0.00,VWS V14.01,2013-03-01 22:10:00,
2013-03-01 15:15:00,59.3,15.8,30.25,NNW,346,4.0,10.0,18,0.00,,---,0.00,VWS V14.01,2013-03-01 22:15:00,
2013-03-01 15:20:00,59.6,16.1,30.25,WNW,298,2.0,6.0,18,0.00,,---,0.00,VWS V14.01,2013-03-01 22:20:00,
2013-03-01 15:25:00,59.9,15.0,30.25,NW,307,3.0,4.0,17,0.00,,---,0.00,VWS V14.01,2013-03-01 22:25:00,
2013-03-01 15:30:00,59.8,14.9,30.25,WNW,298,5.0,7.0,17,0.00,,---,0.00,VWS V14.01,2013-03-01 22:30:00,
2013-03-01 15:35:00,59.6,14.8,30.25,West,270,2.0,4.0,17,0.00,,---,0.00,VWS V14.01,2013-03-01 22:35:00,
2013-03-01 15:40:00,59.9,15.0,30.25,WNW,286,4.0,7.0,17,0.00,,---,0.00,VWS V14.01,2013-03-01 22:40:00,
2013-03-01 15:45:00,59.5,14.7,30.24,North,350,6.0,6.0,17,0.00,,---,0.00,VWS V14.01,2013-03-01 22:45:00,
2013-03-01 15:50:00,59.7,16.1,30.24,WNW,299,3.0,6.0,18,0.00,,---,0.00,VWS V14.01,2013-03-01 22:50:00,
2013-03-01 15:55:00,59.8,16.2,30.24,NW,304,3.0,6.0,18,0.00,,---,0.00,VWS V14.01,2013-03-01 22:55:00,
2013-03-01 16:00:00,59.6,16.1,30.24,NNE,12,8.0,8.0,18,0.00,,---,0.00,VWS V14.01,2013-03-01 23:00:00,
2013-03-01 16:05:00,59.8,16.2,30.24,NW,322,3.0,4.0,18,0.00,,---,0.00,VWS V14.01,2013-03-01 23:05:00,
2013-03-01 16:10:00,60.4,16.7,30.24,SSW,201,6.0,6.0,18,0.00,,---,0.00,VWS V14.01,2013-03-01 23:10:00,
2013-03-01 16:15:00,59.9,16.3,30.23,NNW,329,4.0,4.0,18,0.00,,---,0.00,VWS V14.01,2013-03-01 23:15:00,
2013-03-01 16:20:00,59.9,16.3,30.24,NNW,340,5.0,5.0,18,0.00,,---,0.00,VWS V14.01,2013-03-01 23:20:00,
2013-03-01 16:25:00,59.5,16.0,30.24,WNW,298,3.0,6.0,18,0.00,,---,0.00,VWS V14.01,2013-03-01 23:25:00,
2013-03-01 16:30:00,59.5,16.0,30.23,NW,316,2.0,3.0,18,0.00,,---,0.00,VWS V14.01,2013-03-01 23:30:00,
2013-03-01 16:35:00,59.7,16.1,30.24,NW,309,0.0,5.0,18,0.00,,---,0.00,VWS V14.01,2013-03-01 23:35:00,
2013-03-01 16:40:00,59.6,16.1,30.23,NNW,335,4.0,6.0,18,0.00,,---,0.00,VWS V14.01,2013-03-01 23:40:00,
2013-03-01 16:45:00,59.5,17.2,30.23,West,272,5.0,6.0,19,0.00,,---,0.00,VWS V14.01,2013-03-01 23:45:00,
2013-03-01 16:50:00,59.5,16.0,30.23,NW,312,7.0,7.0,18,0.00,,---,0.00,VWS V14.01,2013-03-01 23:50:00,
2013-03-01 16:55:00,59.2,17.0,30.23,North,355,3.0,5.0,19,0.00,,---,0.00,VWS V14.01,2013-03-01 23:55:00,
2013-03-01 17:00:00,59.4,17.1,30.23,North,349,3.0,8.0,19,0.00,,---,0.00,VWS V14.01,2013-03-02 00:00:00,
2013-03-01 17:05:00,59.0,16.8,30.23,WNW,295,3.0,6.0,19,0.00,,---,0.00,VWS V14.01,2013-03-02 00:05:00,
2013-03-01 17:10:00,58.7,17.8,30.23,WNW,302,1.0,4.0,20,0.00,,---,0.00,VWS V14.01,2013-03-02 00:10:00,
2013-03-01 17:15:00,58.3,17.4,30.23,NNW,336,5.0,7.0,20,0.00,,---,0.00,VWS V14.01,2013-03-02 00:15:00,
2013-03-01 17:20:00,57.8,18.1,30.23,NW,319,5.0,7.0,21,0.00,,---,0.00,VWS V14.01,2013-03-02 00:20:00,
2013-03-01 17:25:00,57.5,17.9,30.23,WSW,254,2.0,6.0,21,0.00,,---,0.00,VWS V14.01,2013-03-02 00:25:00,
2013-03-01 17:30:00,57.2,17.6,30.23,NNW,327,6.0,9.0,21,0.00,,---,0.00,VWS V14.01,2013-03-02 00:30:00,
2013-03-01 17:35:00,56.8,17.3,30.23,WNW,291,6.0,9.0,21,0.00,,---,0.00,VWS V14.01,2013-03-02 00:35:00,
2013-03-01 17:40:00,56.6,18.2,30.23,NW,312,5.0,5.0,22,0.00,,---,0.00,VWS V14.01,2013-03-02 00:40:00,
2013-03-01 17:45:00,56.3,18.0,30.24,WNW,287,3.0,6.0,22,0.00,,---,0.00,VWS V14.01,2013-03-02 00:45:00,
2013-03-01 17:50:00,56.1,17.8,30.24,WNW,296,4.0,4.0,22,0.00,,---,0.00,VWS V14.01,2013-03-02 00:50:00,
2013-03-01 17:55:00,55.8,17.5,30.24,WNW,288,2.0,6.0,22,0.00,,---,0.00,VWS V14.01,2013-03-02 00:55:00,
2013-03-01 18:00:00,55.5,18.3,30.24,NW,313,3.0,3.0,23,0.00,,---,0.00,VWS V14.01,2013-03-02 01:00:00,
2013-03-01 18:05:00,55.3,18.1,30.24,WNW,286,2.0,6.0,23,0.00,,---,0.00,VWS V14.01,2013-03-02 01:05:00,
2013-03-01 18:10:00,55.0,17.9,30.24,WNW,292,2.0,3.0,23,0.00,,---,0.00,VWS V14.01,2013-03-02 01:10:00,
2013-03-01 18:15:00,54.8,17.7,30.25,NW,323,3.0,3.0,23,0.00,,---,0.00,VWS V14.01,2013-03-02 01:15:00,
2013-03-01 18:20:00,54.5,18.5,30.25,NW,315,2.0,5.0,24,0.00,,---,0.00,VWS V14.01,2013-03-02 01:20:00,
2013-03-01 18:25:00,54.3,18.3,30.25,NW,307,4.0,6.0,24,0.00,,---,0.00,VWS V14.01,2013-03-02 01:25:00,
2013-03-01 18:30:00,54.1,18.1,30.25,NW,321,2.0,3.0,24,0.00,,---,0.00,VWS V14.01,2013-03-02 01:30:00,
2013-03-01 18:35:00,53.9,18.0,30.25,NW,306,4.0,4.0,24,0.00,,---,0.00,VWS V14.01,2013-03-02 01:35:00,
2013-03-01 18:40:00,53.8,18.8,30.25,WNW,293,1.0,3.0,25,0.00,,---,0.00,VWS V14.01,2013-03-02 01:40:00,
2013-03-01 18:45:00,53.5,18.6,30.25,NW,326,0.0,2.0,25,0.00,,---,0.00,VWS V14.01,2013-03-02 01:45:00,
2013-03-01 18:50:00,53.0,18.1,30.26,NNW,327,2.0,3.0,25,0.00,,---,0.00,VWS V14.01,2013-03-02 01:50:00,
2013-03-01 18:55:00,52.7,18.8,30.26,NNW,328,3.0,4.0,26,0.00,,---,0.00,VWS V14.01,2013-03-02 01:55:00,
2013-03-01 19:00:00,52.6,18.7,30.26,NW,309,4.0,4.0,26,0.00,,---,0.00,VWS V14.01,2013-03-02 02:00:00,
2013-03-01 19:05:00,52.5,18.6,30.27,NNW,327,1.0,3.0,26,0.00,,---,0.00,VWS V14.01,2013-03-02 02:05:00,
2013-03-01 19:10:00,52.4,18.5,30.27,NW,306,3.0,3.0,26,0.00,,---,0.00,VWS V14.01,2013-03-02 02:10:00,
2013-03-01 19:15:00,52.1,19.2,30.27,NW,319,1.0,3.0,27,0.00,,---,0.00,VWS V14.01,2013-03-02 02:15:00,
2013-03-01 19:20:00,51.9,19.0,30.27,NW,307,3.0,3.0,27,0.00,,---,0.00,VWS V14.01,2013-03-02 02:20:00,
2013-03-01 19:25:00,51.7,18.8,30.28,NW,323,1.0,3.0,27,0.00,,---,0.00,VWS V14.01,2013-03-02 02:25:00,
2013-03-01 19:30:00,51.5,18.6,30.27,NNW,338,7.0,7.0,27,0.00,,---,0.00,VWS V14.01,2013-03-02 02:30:00,
2013-03-01 19:35:00,51.4,18.6,30.28,NNW,331,1.0,1.0,27,0.00,,---,0.00,VWS V14.01,2013-03-02 02:35:00,
2013-03-01 19:40:00,51.0,19.1,30.28,NNW,346,0.0,3.0,28,0.00,,---,0.00,VWS V14.01,2013-03-02 02:40:00,
2013-03-01 19:45:00,50.6,18.7,30.28,NNW,344,2.0,3.0,28,0.00,,---,0.00,VWS V14.01,2013-03-02 02:45:00,
2013-03-01 19:50:00,50.4,18.5,30.28,NNW,346,2.0,3.0,28,0.00,,---,0.00,VWS V14.01,2013-03-02 02:50:00,
2013-03-01 19:55:00,50.2,18.4,30.29,North,355,2.0,3.0,28,0.00,,---,0.00,VWS V14.01,2013-03-02 02:55:00,
2013-03-01 20:00:00,49.9,18.9,30.29,NW,315,0.0,1.0,29,0.00,,---,0.00,VWS V14.01,2013-03-02 03:00:00,
2013-03-01 20:05:00,49.6,18.7,30.29,ENE,57,1.0,1.0,29,0.00,,---,0.00,VWS V14.01,2013-03-02 03:05:00,
2013-03-01 20:10:00,49.3,19.2,30.29,North,360,0.0,0.0,30,0.00,,---,0.00,VWS V14.01,2013-03-02 03:10:00,
2013-03-01 20:15:00,49.2,19.1,30.30,NE,47,1.0,1.0,30,0.00,,---,0.00,VWS V14.01,2013-03-02 03:15:00,
2013-03-01 20:20:00,49.1,19.0,30.30,ENE,60,0.0,0.0,30,0.00,,---,0.00,VWS V14.01,2013-03-02 03:20:00,
2013-03-01 20:25:00,48.8,18.8,30.30,NE,46,1.0,1.0,30,0.00,,---,0.00,VWS V14.01,2013-03-02 03:25:00,
2013-03-01 20:30:00,49.0,18.9,30.29,NNW,342,0.0,0.0,30,0.00,,---,0.00,VWS V14.01,2013-03-02 03:30:00,
2013-03-01 20:35:00,48.5,19.3,30.30,NNW,342,1.0,1.0,31,0.00,,---,0.00,VWS V14.01,2013-03-02 03:35:00,
2013-03-01 20:40:00,48.5,19.3,30.30,NNW,328,1.0,2.0,31,0.00,,---,0.00,VWS V14.01,2013-03-02 03:40:00,
2013-03-01 20:45:00,48.2,19.0,30.31,NNW,327,2.0,6.0,31,0.00,,---,0.00,VWS V14.01,2013-03-02 03:45:00,
2013-03-01 20:50:00,49.1,19.8,30.31,NNW,333,3.0,9.0,31,0.00,,---,0.00,VWS V14.01,2013-03-02 03:50:00,
2013-03-01 20:55:00,49.4,20.0,30.31,North,355,2.0,3.0,31,0.00,,---,0.00,VWS V14.01,2013-03-02 03:55:00,
2013-03-01 21:00:00,49.4,20.0,30.31,NNW,345,3.0,3.0,31,0.00,,---,0.00,VWS V14.01,2013-03-02 04:00:00,
2013-03-01 21:05:00,49.5,20.1,30.31,NW,325,3.0,7.0,31,0.00,,---,0.00,VWS V14.01,2013-03-02 04:05:00,
2013-03-01 21:10:00,49.6,19.5,30.31,NW,319,0.0,3.0,30,0.00,,---,0.00,VWS V14.01,2013-03-02 04:10:00,
2013-03-01 21:15:00,49.3,20.0,30.31,NNW,333,4.0,4.0,31,0.00,,---,0.00,VWS V14.01,2013-03-02 04:15:00,
2013-03-01 21:20:00,49.2,19.9,30.31,North,355,2.0,4.0,31,0.00,,---,0.00,VWS V14.01,2013-03-02 04:20:00,
2013-03-01 21:25:00,49.2,19.9,30.31,NNW,347,3.0,5.0,31,0.00,,---,0.00,VWS V14.01,2013-03-02 04:25:00,
2013-03-01 21:30:00,49.2,19.9,30.31,NW,323,4.0,7.0,31,0.00,,---,0.00,VWS V14.01,2013-03-02 04:30:00,
2013-03-01 21:35:00,49.2,19.9,30.32,NW,325,1.0,3.0,31,0.00,,---,0.00,VWS V14.01,2013-03-02 04:35:00,
2013-03-01 21:40:00,48.6,20.1,30.32,NNW,333,3.0,6.0,32,0.00,,---,0.00,VWS V14.01,2013-03-02 04:40:00,
2013-03-01 21:45:00,48.7,20.2,30.32,NW,321,5.0,6.0,32,0.00,,---,0.00,VWS V14.01,2013-03-02 04:45:00,
2013-03-01 21:50:00,48.6,20.1,30.32,North,5,0.0,0.0,32,0.00,,---,0.00,VWS V14.01,2013-03-02 04:50:00,
2013-03-01 21:55:00,48.1,19.6,30.32,NNW,334,1.0,3.0,32,0.00,,---,0.00,VWS V14.01,2013-03-02 04:55:00,
2013-03-01 22:00:00,47.9,20.2,30.32,NNW,328,1.0,4.0,33,0.00,,---,0.00,VWS V14.01,2013-03-02 05:00:00,
2013-03-01 22:05:00,47.9,20.2,30.32,North,10,0.0,2.0,33,0.00,,---,0.00,VWS V14.01,2013-03-02 05:05:00,
2013-03-01 22:10:00,47.4,19.8,30.32,North,355,4.0,4.0,33,0.00,,---,0.00,VWS V14.01,2013-03-02 05:10:00,
2013-03-01 22:15:00,47.3,19.7,30.33,NNW,345,1.0,3.0,33,0.00,,---,0.00,VWS V14.01,2013-03-02 05:15:00,
2013-03-01 22:20:00,47.3,19.7,30.32,North,355,0.0,2.0,33,0.00,,---,0.00,VWS V14.01,2013-03-02 05:20:00,
2013-03-01 22:25:00,46.8,19.9,30.33,North,355,0.0,2.0,34,0.00,,---,0.00,VWS V14.01,2013-03-02 05:25:00,
2013-03-01 22:30:00,46.1,20.0,30.33,North,355,0.0,0.0,35,0.00,,---,0.00,VWS V14.01,2013-03-02 05:30:00,
2013-03-01 22:35:00,45.5,20.1,30.33,North,355,0.0,0.0,36,0.00,,---,0.00,VWS V14.01,2013-03-02 05:35:00,
2013-03-01 22:40:00,45.1,19.8,30.33,North,355,0.0,0.0,36,0.00,,---,0.00,VWS V14.01,2013-03-02 05:40:00,
2013-03-01 22:45:00,44.4,19.8,30.33,North,355,0.0,0.0,37,0.00,,---,0.00,VWS V14.01,2013-03-02 05:45:00,
2013-03-01 22:50:00,44.1,20.1,30.32,North,355,0.0,0.0,38,0.00,,---,0.00,VWS V14.01,2013-03-02 05:50:00,
2013-03-01 22:55:00,43.8,20.5,30.32,North,355,0.0,2.0,39,0.00,,---,0.00,VWS V14.01,2013-03-02 05:55:00,
2013-03-01 23:00:00,44.0,20.0,30.32,North,355,1.0,2.0,38,0.00,,---,0.00,VWS V14.01,2013-03-02 06:00:00,
2013-03-01 23:05:00,44.4,20.4,30.33,North,9,0.0,1.0,38,0.00,,---,0.00,VWS V14.01,2013-03-02 06:05:00,
2013-03-01 23:10:00,44.4,20.4,30.33,North,9,0.0,0.0,38,0.00,,---,0.00,VWS V14.01,2013-03-02 06:10:00,
2013-03-01 23:15:00,44.3,20.3,30.33,North,5,0.0,0.0,38,0.00,,---,0.00,VWS V14.01,2013-03-02 06:15:00,
2013-03-01 23:20:00,43.4,20.1,30.33,NNE,22,1.0,2.0,39,0.00,,---,0.00,VWS V14.01,2013-03-02 06:20:00,
2013-03-01 23:25:00,43.5,20.2,30.33,ENE,69,0.0,0.0,39,0.00,,---,0.00,VWS V14.01,2013-03-02 06:25:00,
2013-03-01 23:30:00,43.6,20.3,30.33,ENE,64,0.0,1.0,39,0.00,,---,0.00,VWS V14.01,2013-03-02 06:30:00,
2013-03-01 23:35:00,43.6,20.3,30.33,NE,56,3.0,3.0,39,0.00,,---,0.00,VWS V14.01,2013-03-02 06:35:00,
2013-03-01 23:40:00,43.6,20.3,30.33,ENE,63,0.0,1.0,39,0.00,,---,0.00,VWS V14.01,2013-03-02 06:40:00,
2013-03-01 23:45:00,43.4,20.1,30.33,ENE,63,0.0,0.0,39,0.00,,---,0.00,VWS V14.01,2013-03-02 06:45:00,
2013-03-01 23:50:00,42.7,20.7,30.33,ENE,63,0.0,0.0,41,0.00,,---,0.00,VWS V14.01,2013-03-02 06:50:00,
2013-03-01 23:55:00,42.3,20.3,30.34,North,360,1.0,3.0,41,0.00,,---,0.00,VWS V14.01,2013-03-02 06:55:00,